Regional Weather Roundup
Issued by NWS Charleston, SC

Current Version | Previous Version | Graphics & Text | Print | Product List | Glossary On
Versions: 1 2 3 4 5 6 7 8 9 10 11 12 13 14 15 16 17 18 19 20 21 22 23 24 25 26 27 28 29 30 31 32 33 34 35 36 37 38 39 40 41 42 43 44 45 46 47 48 49 50
000 ASUS42 KCHS 240812 RWRCHS REGIONAL WEATHER ROUNDUP NATIONAL WEATHER SERVICE CHARLESTON SC 400 AM EDT WED MAY 24 2017 NOTE: "FAIR" INDICATES FEW OR NO CLOUDS BELOW 12,000 FEET WITH NO SIGNIFICANT WEATHER AND/OR OBSTRUCTIONS TO VISIBILITY. NOT ALL STATIONS ARE QUALITY CONTROLLED. USE DATA WITH CAUTION... ESPECIALLY DEWPOINT OBSERVATIONS. SCZ027-030-031-034>040-042>050-240900- ...SOUTHEAST SOUTH CAROLINA... CITY SKY/WX TMP DP RH WIND PRES REMARKS N CHARLESTON CLOUDY 71 69 93 SW5 29.68F WATERFRONT PRK N/A 73 71 93 VRB3 29.67S JOHNS ISLAND FAIR 73 72 94 SW6 29.69F PINOPOLIS N/A 72 70 94 SW7 29.59F MONCKS CORNER NOT AVBL SUMMERVILLE HVY RAIN 70 68 94 SW3 29.69F BEAUFORT MCAS MOCLDY 71 71 100 SW10 29.69F BEAUFORT ARPT FAIR 72 70 94 SW9G18 29.69S HILTON HEAD IS CLOUDY 75 72 88 S13G21 29.71S WALTERBORO LGT RAIN 70 68 94 W6 29.70R ALLENDALE PTSUNNY 68 68 100 CALM 29.67F ...SOUTHERN MIDLANDS AND PEE DEE... CITY SKY/WX TMP DP RH WIND PRES REMARKS GEORGETOWN NOT AVBL KINGSTREE CLOUDY N/A N/A N/A SW3 29.68F ORANGEBURG CLOUDY 69 67 93 SW6 29.68F BARNWELL PTSUNNY 70 70 100 CALM 29.67F AIKEN FAIR 64 64 100 SW6 29.69F MANNING CLOUDY 70 70 100 W18 29.68F COLUMBIA MOCLDY 69 66 90 SE3 29.65F SUMTER LGT RAIN 69 67 93 S6 29.65F FLORENCE CLOUDY 68 68 100 SW5 29.68R MYRTLE BEACH CLOUDY 70 68 93 W7 29.70S N MYRTLE BEACH CLOUDY 70 68 93 W6 29.69R $$ GAZ063-065-086>088-099>101-113>116-118-119-134>141-150-240900- ...SOUTHEAST GEORGIA... CITY SKY/WX TMP DP RH WIND PRES REMARKS SAVANNAH ARPT MOCLDY 73 68 84 SW10 29.70F HUNTER AAF CLOUDY 73 73 100 SW7 29.68F FORT STEWART CLOUDY 71 69 92 S7 29.68F STATESBORO DRIZZLE 69 69 100 CALM 29.70S SYLVANIA DRIZZLE 68 68 100 CALM 29.70S CLAXTON PTSUNNY N/A N/A N/A S6 29.70S ...CSRA...CENTRAL AND FAR SOUTHEAST GEORGIA... CITY SKY/WX TMP DP RH WIND PRES REMARKS THOMSON CLOUDY 67 66 97 W3 29.70F FOG AUGUSTA-BUSH CLOUDY 70 68 93 S3 29.65F AUGUSTA-DANIEL CLOUDY 69 66 90 S7 29.66F SWAINSBORO LGT RAIN 68 68 100 CALM 29.68F VIDALIA MOCLDY 72 70 94 S7 29.69F EASTMAN PTSUNNY 72 72 100 S5 29.69F HAZLEHURST PTSUNNY 73 73 100 SW6 29.69F ALMA CLOUDY 72 70 93 S6 29.71S WAYCROSS MOCLDY 74 74 100 SW5 29.71F JESUP CLOUDY 72 68 88 SW3 29.72F BAXLEY MOCLDY 72 72 100 S5 29.70F BRUNSWICK CLOUDY 73 72 94 SW12 29.73F SAINT SIMONS CLOUDY 74 69 85 SW10 29.73F $$ SCZ027-028-034-036>038-045-046-048>050-GAZ119-141-240900- ...LAKE AND SUPPLEMENTAL COASTAL OBSERVATIONS... STATION/POSITION TIME TEMP WIND PRES WAVE SWELL AIR SEA DIR/SP/G HT/PER HT/PER/DIR (UTC) (F) (DEG/KT/KT) (MB) (FT/S) (FT/S/D) WINYAH BAY 0645 71 260/ 6 1005.0 LAKE MURRAY 0720 68 230/ 4/ 7 1003.7 ACE BASIN NERRS NOT AVBL FORT PULASKI 0748 74 230/ 9/ 13 1006.1F SAPELO ISLAND 0700 73 220/ 9 1007.0 $$ ANZ835-935-AMZ111-154-330-350-352-354-370-450-454-472-240900- ...C-MAN AND BUOY OBSERVATIONS... STATION/POSITION TIME TEMP WIND PRES WAVE SWELL AIR SEA DIR/SP/G HT/PER HT/PER/DIR (UTC) (F) (DEG/KT/KT) (MB) (FT/S) (FT/S/D) BUOY 41004 0750 77 77 230/ 21/ 27 1005.3R 8/ 7 BUOY 41008 0750 77 78 200/ 19/ 23 1006.1F 5/ 5 FOLLY BEACH CMAN 0700 76 230/ 16/ 22 1005.9F CAPERS NEARSHORE 0708 80 75 240/ 23/ 31 1004.7F FRIPP NEARSHORE 0708 78 78 230/ 21/ 27 1005.2F STATION/POSITION TIME TEMP WIND PRES WAVE SWELL AIR SEA DIR/SP/G HT/PER HT/PER/DIR (UTC) (F) (DEG/KT/KT) (MB) (FT/S) (FT/S/D) 5E ST. MARYS GA 0730 79 N/A 3/ 5 FRYING PAN BUOY 0750 78 77 240/ 21/ 27 1004.9R 8/ 8 2/140/12 BUOY 41025 0750 74 74 210/ 21/ 25 1004.4F 5/ 5 2/100/11 CAPE LOOKOUT NC 0700 73 210/ 11/ 13 1003.8F BUOY 41002 0750 77 76 200/ 23/ 29 1009.6F 7/ 6 2/ 80/12 BUOY 41010 0750 80 79 210/ 16/ 21 1010.3F 7/ 7 2/220/11 ST AUGUSTINE FL 0800 74 78 220/ 2/ 3 1009.1R $$

USA.gov is the U.S. government's official web portal to all federal, state and local government web resources and services.